Вернуться в каталог

RADUGA 1

АктивенСвязьGEO
NORAD 8513·PAYLOAD·🇷🇺 Russia

Запущен Dec 22, 1975 с Baikonur Cosmodrome

Loading…

TLE

СвежийSource: Space-Track

Эпоха: Sep 14, 2026, 14:06 UTC

1 08513U 75123A   26257.58801440  .00000002  00000-0  00000-0 0  9999
2 08513   2.5771 264.6575 0005581 304.0785  61.3116  1.00263310195719

Отслеживайте RADUGA 1 в реальном времени с AllMySat

Download on the App Store